Miscellaneous Local Product
Issued by NWS North Platte, NE

Home | Current Version | Previous Version | Text Only | Print | Product List | Glossary On
Versions: 1 2 3 4 5 6 7 8 9 10 11 12 13 14 15 16 17 18 19 20 21 22 23 24 25 26 27 28 29 30 31 32 33 34 35 36 37 38 39 40 41 42 43 44 45 46 47 48 49 50
000
AXUS43 KLBF 280410
MISLBF


WESTERN AND NORTH CENTRAL NEBRASKA HOURLY WEATHER ROUNDUP
NATIONAL WEATHER SERVICE NORTH PLATTE NE
1100 PM CDT FRI MAR 27 2015

***STATIONS NOT REPORTING VARIABLES SUCH AS SKY/WEATHER OR
PRESSURE ARE PROVIDED BY THE NEBRASKA DEPARTMENT OF
ROADS...RAWS...AND APRS NETWORKS...AND ARE NOT UNDER
NATIONAL WEATHER SERVICE QUALITY CONTROL***

...OBSERVATIONS IN AND NEAR THE EASTERN PANHANDLE OF NEBRASKA...

CITY           SKY/WX    TMP DP  RH WIND       PRES   REMARKS
PINE RIDGE     PTCLDY    43  32  65 CALM      29.97R
CHADRON        MOCLDY    45  34  65 SW6       29.98R
ALLIANCE       MOCLDY    41  31  67 SW8       30.01R
SIDNEY         PTCLDY    43  31  62 NW9       30.04R
WHITECLAY        N/A     38  32  79 SE5         N/A  WCI  34
CRESCENT LAKE    N/A     52  35  52 CALM        N/A
BIG SPRINGS      N/A     48  31  52 SW3         N/A
$$

...OBSERVATIONS IN NORTH CENTRAL NEBRASKA...

CITY           SKY/WX    TMP DP  RH WIND       PRES   REMARKS
VALENTINE      MOCLDY    40  31  70 W3        29.94R
THEDFORD       CLEAR     43  33  67 CALM      29.97S
AINSWORTH      CLEAR     39  31  72 SW5       29.94S
O`NEILL        CLOUDY    36  30  79 S12       29.97R WCI  28
ORD            PTCLDY    36  25  64 SE6       29.98R WCI  31
BROKEN BOW     CLEAR     34  29  82 CALM      29.96R
BROWNLEE         N/A     49  31  50 CALM        N/A
SPRINGVIEW       N/A     37  31  80 CALM        N/A
BREWSTER         N/A     37  34  87 CALM        N/A
ROSE             N/A     38  35  87 E6          N/A  WCI  34
NEWPORT          N/A     38  31  78 CALM        N/A
SARGENT          N/A     38  31  75 CALM        N/A
COMSTOCK         N/A     41  29  63 S3          N/A
EWING            N/A     33  29  86 SE5         N/A  WCI  28
$$

...OBSERVATIONS IN SOUTHWEST NEBRASKA AND FAR NORTHEAST COLORADO...

CITY           SKY/WX    TMP DP  RH WIND       PRES   REMARKS
WRAY           FAIR      49  32  52 W3        30.01S
HOLYOKE        FAIR      48  32  53 W9        30.02R
IMPERIAL         N/A     50  32  50 MISG      29.99R
OGALLALA       MOCLDY    47  34  60 CALM      30.00R
NORTH PLATTE   PTCLDY    41  34  76 CALM      29.98R
MCCOOK         PTCLDY    47  35  63 NE8       29.97R
LEXINGTON      CLEAR     47  35  61 SE3       29.97S
PAXTON           N/A     50  35  57 CALM        N/A
SUTHERLAND       N/A     44  36  73 CALM        N/A
BRADY            N/A     44  34  68 CALM        N/A
GOTHENBURG       N/A     50  34  54 CALM        N/A
CALLAWAY         N/A     42  34  73 S6          N/A
$$

...NORTH PLATTE AREA...

CITY           SKY/WX    TMP DP  RH WIND       PRES   REMARKS
AIRPORT        PTCLDY    41  34  76 CALM      29.98R
$$

...SOME WEATHER OBSERVATIONS FROM AROUND THE REGION...

CITY           SKY/WX    TMP DP  RH WIND       PRES   REMARKS
DENVER         PTCLDY    56  33  42 W7        30.14R
LARAMIE        PTCLDY    43  22  43 SW6       30.20R
CHEYENNE       PTCLDY    47  24  40 W8        30.13S
SCOTTSBLUFF    PTCLDY    51  32  48 W6        30.02R
RAPID CITY     PTCLDY    43  32  65 NW9       29.95R
PIERRE         PTCLDY    33  29  85 SE8       29.95R WCI  26
WINNER         FAIR      37  29  72 SE7       29.94R WCI  32
SIOUX FALLS    CLOUDY    32  22  66 SE13      30.08R WCI  22
OMAHA          CLOUDY    37  21  52 S12       30.11S WCI  29
GRAND ISLAND   PTCLDY    34  24  67 SE8       30.02S WCI  27
KANSAS CITY    CLOUDY    39  23  52 SE6       30.15F WCI  35
WICHITA        MOCLDY    43  29  57 SE9       30.07S
HAYS           MOCLDY    46  32  57 S8        29.98S
LIBERAL        MOCLDY    55  34  44 SW6       30.06F
GOODLAND       MOCLDY    50  35  56 SW9       30.03R
$$



USA.gov is the U.S. government's official web portal to all federal, state and local government web resources and services.